Tracking 19176 objects as of 27-May-2018
HD Live streaming from Space Station
objects crossing your sky now

COSMOS 1161

Track COSMOS 1161 now!
10-day predictions
COSMOS 1161 is classified as:


NORAD ID: 11696
Int'l Code: 1980-012F
Perigee: 1,474.4 km
Apogee: 1,509.7 km
Inclination: 74.0 °
Period: 115.7 minutes
Semi major axis: 7863 km
RCS: 0.693 m2 (medium)
Launch date: February 11, 1980
Source: Commonwealth of Independent States (former USSR) (CIS)
Launch site: PLESETSK MISSILE AND SPACE COMPLEX (PKMTR)
aabbcc
Your satellite tracking list
Your tracking list is empty




NASA's NSSDC Master Catalog

Two Line Element Set (TLE):
1 11696U 80012F   18147.24069056 -.00000035 +00000-0 -13791-3 0  9991
2 11696 074.0222 080.7559 0022478 290.0259 179.8495 12.45129501740280
Source of the keplerian elements: AFSPC